This is the latest recevied weather packets stored in our database for station/object K8WEH. If no packets are shown the sender has not sent any weather packets the latest 1 day(s).
| Time | Temp. | Humidity | Pressure | Rain* | Wind** | Luminosity | Snow |
|---|---|---|---|---|---|---|---|
| 1778048401 | 13.89° C | 42% | 1007.4 hPa | 4.57 mm | 0 m/s | - | - |
| 1778048101 | 13.89° C | 42% | 1007.6 hPa | 4.57 mm | 0 m/s | - | - |
| 1778047861 | 13.89° C | 42% | 1007.7 hPa | 4.83 mm | 0 m/s | - | - |
| 1778047801 | 13.89° C | 42% | 1007.7 hPa | 4.83 mm | 0 m/s | - | - |
| 1778047574 | 13.89° C | 42% | 1007.5 hPa | 4.57 mm | 0 m/s | - | - |
| 1778047260 | 13.89° C | 43% | 1007.4 hPa | 2.54 mm | 0 m/s | - | - |
| 1778046958 | 13.89° C | 44% | 1007.6 hPa | 1.78 mm | 0 m/s | - | - |
| 1778046658 | 13.89° C | 44% | 1007.7 hPa | 1.78 mm | 0 m/s | - | - |
| 1778046369 | 13.89° C | 44% | 1007.6 hPa | 1.78 mm | 0 m/s | - | - |
| 1778046057 | 13.89° C | 44% | 1007.8 hPa | 1.27 mm | 0 m/s | - | - |
| 1778045757 | 13.89° C | 45% | 1007.8 hPa | 1.27 mm | 0 m/s | - | - |
| 1778045459 | 13.89° C | 45% | 1007.8 hPa | 1.27 mm | 0 m/s | - | - |
| 1778045156 | 14.44° C | 45% | 1007.9 hPa | 1.27 mm | 0 m/s | - | - |
| 1778044854 | 14.44° C | 45% | 1008.1 hPa | 1.27 mm | 0 m/s | - | - |
| 1778044558 | 14.44° C | 45% | 1008.2 hPa | 1.27 mm | 0 m/s | - | - |
| 1778044254 | 14.44° C | 44% | 1008.4 hPa | 0.76 mm | 0 m/s | - | - |
| 1778043953 | 14.44° C | 44% | 1008.6 hPa | 0.51 mm | 0 m/s | - | - |
| 1778043660 | 13.89° C | 44% | 1008.5 hPa | 0.25 mm | 0 m/s | - | - |
| 1778043353 | 13.89° C | 44% | 1008.5 hPa | 0.25 mm | 0 m/s | - | - |
| 1778043051 | 13.89° C | 43% | 1008.8 hPa | 0 mm | 0.45 m/s, 139° | - | - |
| 1778042754 | 13.89° C | 43% | 1008.6 hPa | 0 mm | 0 m/s | - | - |
| 1778042452 | 13.89° C | 43% | 1008.7 hPa | 0 mm | 0 m/s | - | - |
| 1778042151 | 13.89° C | 42% | 1008.7 hPa | 0 mm | 0.45 m/s, 95° | - | - |
| 1778041851 | 13.89° C | 42% | 1008.5 hPa | 0 mm | 0 m/s | - | - |
| 1778041549 | 13.89° C | 42% | 1008.7 hPa | 0 mm | 0 m/s | - | - |
* Rain latest hour (hover to see other rain measurements)
** Current wind speed in m/s (hover to see current wind gust speed)